Nantucket, Massachusetts, United States (02554)
Lat: 41.28N, Lon: 70.1W
Wx Zone: MAZ024
Local Info
Past Weather Observations for Today

NOTE: This archive is for the closest National Weather Service station to Nantucket. Information may differ from the station used for current weather conditions.

Click here for Long-term Archive

Time Weather Temperature Dewpoint Humidity Pressure Winds Precip Visibility
19:53
Clear
64°F / 18°C 59°F / 15°C 83% 30.18 in
(1022 mb)
NE 12.7 mph
(NE 20 kph)
- 10SM
18:58
Clear
64°F / 18°C 59°F / 15°C 83% 30.18 in
(1022 mb)
NE 12.7 mph
(NE 20 kph)
- 10SM
18:53
Fair
64°F / 18°C 61°F / 16°C 88% N/A Calm -
17:53
Partly Cloudy
66°F / 19°C 61°F / 16°C 83% 30.18 in
(1022 mb)
ENE 17.3 mph
(ENE 28 kph)
- 10SM
16:53
Partly Cloudy
72°F / 22°C 63°F / 17°C 73% 30.15 in
(1021 mb)
ENE 18.4 mph
(ENE 30 kph)
- 10SM
15:53
Partly Cloudy
70°F / 21°C 63°F / 17°C 78% 30.15 in
(1021 mb)
NE 18.4 mph
(NE 30 kph)
- 10SM
14:53
Mostly Cloudy
72°F / 22°C 63°F / 17°C 73% 30.15 in
(1021 mb)
NE 18.4 mph
(NE 30 kph)
- 10SM
14:07
Mostly Cloudy
73°F / 23°C 64°F / 18°C 74% 30.15 in
(1021 mb)
NE 21.9 mph
(NE 35 kph)
- 8SM
14:00
Fair
N/A N/A N/A N/A Calm -
13:53
Mostly Cloudy
73°F / 23°C 64°F / 18°C 74% 30.12 in
(1020 mb)
ENE 24.2 mph
(ENE 39 kph)
- 10SM
12:53
Mostly Cloudy
75°F / 24°C 64°F / 18°C 69% 30.12 in
(1020 mb)
NE 21.9 mph
(NE 35 kph)
- 8SM
11:53
Mostly Cloudy
75°F / 24°C 66°F / 19°C 74% 30.12 in
(1020 mb)
ENE 16.1 mph
(ENE 26 kph)
- 10SM
11:02
Mostly Cloudy
75°F / 24°C 66°F / 19°C 74% 30.12 in
(1020 mb)
ENE 16.1 mph
(ENE 26 kph)
- 10SM
10:53
Clear
75°F / 24°C 66°F / 19°C 74% 30.09 in
(1019 mb)
ENE 18.4 mph
(ENE 30 kph)
- 10SM
09:53
Clear
75°F / 24°C 64°F / 18°C 69% 30.09 in
(1019 mb)
ENE 13.8 mph
(ENE 22 kph)
- 10SM
08:53
Clear
73°F / 23°C 68°F / 20°C 83% 30.04 in
(1017 mb)
NE 13.8 mph
(NE 22 kph)
- 10SM
08:07
Clear
73°F / 23°C 68°F / 20°C 83% 30.04 in
(1017 mb)
NE 13.8 mph
(NE 22 kph)
- 10SM
08:00
Fog And Mist
N/A N/A N/A N/A Calm -
07:53
Overcast
Fog And Mist
68°F / 20°C 68°F / 20°C 100% 30.04 in
(1017 mb)
NE 9.2 mph
(NE 15 kph)
- 3SM
06:53
Overcast
Fog And Mist
68°F / 20°C 68°F / 20°C 100% 30.04 in
(1017 mb)
NE 8.1 mph
(NE 13 kph)
- 3SM
06:34
Obscured
Fog
68°F / 20°C 68°F / 20°C 100% 30.04 in
(1017 mb)
ENE 11.5 mph
(ENE 19 kph)
- 1/4SM
06:13
Obscured
Fog
68°F / 20°C 68°F / 20°C 100% 30.01 in
(1016 mb)
ENE 11.5 mph
(ENE 19 kph)
- 1/4SM
06:10
Obscured
Fog And Mist
68°F / 20°C 68°F / 20°C 100% 30.01 in
(1016 mb)
ENE 11.5 mph
(ENE 19 kph)
- 3/4SM
05:53
Obscured
Fog And Mist
68°F / 20°C 66°F / 19°C 94% 30.01 in
(1016 mb)
E 11.5 mph
(E 19 kph)
- 1SM
05:33
Obscured
Fog And Mist
68°F / 20°C 66°F / 19°C 94% N/A E 11.5 mph
(E 19 kph)
- 1SM
05:19
Obscured
Fog
68°F / 20°C 66°F / 19°C 94% N/A ENE 11.5 mph
(ENE 19 kph)
- 1/2SM
05:12
Fog And Mist
N/A N/A N/A N/A Calm -
04:53
Fog And Mist
N/A N/A N/A N/A Calm -
04:26
Fog And Mist
N/A N/A N/A N/A Calm -
04:09
Fog And Mist
N/A N/A N/A N/A Calm -
04:02
Fog And Mist
N/A N/A N/A N/A Calm -
03:53
Fog And Mist
N/A N/A N/A N/A Calm -
03:13
Fog And Mist
N/A N/A N/A N/A Calm -
03:05
Fog And Mist
N/A N/A N/A N/A Calm -
02:53
Fog And Mist
N/A N/A N/A N/A Calm -
01:53
Fog And Mist
N/A N/A N/A N/A Calm -
00:53
Fog And Mist
N/A N/A N/A N/A Calm -
Time Weather Temperature Dewpoint Humidity Pressure Winds Precip Visibility


Weather for websites

WeatherForYou.com, LLC is not responsible for any damages or problems caused by this service. Current weather conditions are obtained from the closest station including government and personal stations which may have varying degrees of accuracy. Weather forecasts are derived from the NOAA NDFD. Like all things, this site belongs to Jesus Christ... He just trusts us to maintain it. If you have any questions or comments email webmaster@weatherforyou.com

Copyright © 2015, WeatherForYou.com LLC. All rights reserved.